SCP
0 0 0 0 0 0 0 0 0 0 0 0 0 -0 -0 0 0 0 0 0 0 0 0 0 0 0 0 0 0 0 0 0 0 0 0 0 0 0 0 0 0 0 0
0 0 0 0 0 0 0 0 0 0 0 0 0 0 0 0 0 0 0 0 0 0 0 0 0 0 0 0 0 0 0 0 0 0 0 0 0 0 0 0 0 0 0
0 0 0 0 0 0 0 0 0 0 0 0 0 0 0 0 0 0 0 0 0 0 0 0 0 0 0 0 0 0 0 0 0 0 0 0 0 0 0 0 0 0 0
0 0 0 0 0 0 0 0 0 0 0 0 0 0 0 0 0 0 0 0 0 0 0 0 0 0 0 0 0 0 0 0 0 0 0 0 0 0 0 0 0 0 0
0 0 0 0 0 0 0 0 0 0 0 0 0 0 0 0 0 0 0 0 0 0 0 0 0 0 0 0 0 0 0 0 0 0 0 0 0 0 0 0 0 0 0
0 0 0 0 0 0 0 0 0 0 0 0 0 0 0 0 0 0 0 0 0 0 0 0 0 0 0 0 0 0 0 0 0 0 0 0 0 0 0 0 0 0 0
0 0 0 0 0 0 0 0 0 0 0 0 0 0 0 0 0 0 0 0 0 0 0 0 0 0 0 0 0 0 0 0 0 0 0 0 0 0 0 0 0 0 0
0 0 0 0 0 0 0 0 0 0 0 0 0 0 0 0 0 0 0 0 0 0 0 0 0 0 0 0 0 0 0 0 0 0 0 0 0 0 0 0 0 0 0
0 0 0 0 0 0 0 0 0 0 0 0 0 0 0 0 0 0 0 0 0 0 0 0 0 0 0 0 0 0 0 0 0 0 0 0 0 0 0 0 0 0 0
0 0 0 0 0 0 0 0 0 0 0 0 0 0 0 0 0 0 0 0 0 0 0 0 0 0 0 0 0 0 0 0 0 0 0 0 0 0 0 0 0 0 0
0 0 0 0 0 0 0 0 0 0 0 0 0 0 0 0 0 0 0 0 0 0 0 0 0 0 0 0 0 0 0 0 0 0 0 0 0 0 0 0 0 0 0
0 0 0 0 0 0 0 0 0 0 0 0 0 0 0 0 0 0 0 0 0 0 0 0 0 0 0 0 0 0 0 0 0 0 0 0 0 0 0 0 0 0 0
0 0 0 0 0 0 0 0 0 0 0 0 0 0 0 0 0 0 0 0 0 0 0 0 0 0 0 0 0 0 0 0 0 0 0 0 0 0 0 0 0 0 0
0 0 0 0 0 0 0 0 0 0 0 0 0 0 0 0 0 0 0 0 0 0 0 0 0 0 0 0 0 0 0 0 0 0 0 0 0 0 0 0 0 0 0
0 0 0 0 0 0 0 0 0 0 0 0 0 0 0 0 0 0 0 0 0 0 0 0 0 0 0 0 0 0 0 0 0 0 0 0 0 0 0 0 0 0 0
0 0 0 0 0 0 0 0 0 0 0 0 0 0 0 0 0 0 0 0 0 0 0 0 0 0 0 0 0 0 0 0 0 0 0 0 0 0 0 0 0 0 0
0 0 0 0 0 0 0 0 0 0 0 0 0 0 0 0 0 0 0 0 0 0 0 0 0 0 0 0 0 0 0 0 0 0 0 0 0 0 0 0 0 0 0
0 0 0 0 0 0 0 0 0 0 0 0 0 0 0 0 0 0 0 0 0 0 0 0 0 0 0 0 0 0 0 0 0 0 0 0 0 0 0 0 0 0 0
0 0 0 0 0 0 0 0 0 0 0 0 0 0 0 0 0 0 0 0 0 0 0 0 0 0 0 0 0 0 0 0 0 0 0 0 0 0 0 0 0 0 0
0 0 0 0 0 0 0 0 0 0 0 0 0 0 0 0 0 0 0 0 0 0 0 0 0 0 0 0 0 0 0 0 0 0 0 0 0 0 0 0 0 0 0
0 0 0 0 0 0 0 0 0 0 0 0 0 0 0 0 0 0 0 0 0 0 0 0 0 0 0 0 0 0 0 0 0 0 0 0 0 0 0 0 0 0 0
0 0 0 0 0 0 0 0 0 0 0 0 0 0 0 0 0 0 0 0 0 0 0 0 0 0 0 0 0 0 0 0 0 0 0 0 0 0 0 0 0 0 0
0 0 0 0 0 0 0 0 0 0 0 0 0 0 0 0 0 0 0 0 0 0 0 0 0 0 0 0 0 0 0 0 0 0 0 0 0 0 0 0 0 0 0
0 0 0 0 0 0 0 0 0 0 0 0 0 0 0 0 0 0 0 0 0 0 0 0 0 0 0 0 0 0 0 0 0 0 0 0 0 0 0 0 0 0 0
0 0 0 0 0 0 0 0 0 0 0 0 0 0 0 0 0 0 0 0 0 0 0 0 0 0 0 0 0 0 0 0 0 0 0 0 0 0 0 0 0 0 0
0 0 0 0 0 0 0 0 0 0 0 0 0 0 0 0 0 0 0 0 0 0 0 0 0 0 0 0 0 0 0 0 0 0 0 0 0 0 0 0 0 0 0
Wind_Speed
4 4 3 3 4 4 4 4 4 5 5 6 6 6 6 6 5 5 4 11 12 12 12 11 10 9 8 7 7 7 7 7 7 8 8 8 8 8 8 7 7 6 6
3 3 3 4 4 5 5 4 5 5 5 5 7 7 7 6 6 7 5 8 11 11 11 11 11 10 9 8 8 8 8 7 7 8 8 8 8 8 8 7 6 5 4
4 3 3 4 4 5 5 4 5 3 4 5 7 8 6 7 8 8 7 5 6 9 10 10 11 11 11 10 9 9 8 8 8 8 8 8 8 8 8 7 6 5 4
4 3 4 4 4 4 4 4 4 3 4 4 5 5 6 7 9 9 7 6 5 5 8 10 10 10 11 11 10 10 9 8 8 8 8 8 8 8 7 7 6 5 4
4 3 4 4 4 4 4 5 4 3 3 4 3 3 4 6 8 9 8 8 6 6 5 8 11 10 11 11 11 11 11 10 9 9 8 8 7 7 7 6 6 5 4
4 4 4 4 4 3 3 4 4 4 3 3 2 2 2 4 6 7 9 7 6 7 6 6 6 7 11 11 11 12 12 11 11 10 10 9 8 7 7 6 6 5 5
5 4 4 4 4 4 5 5 4 5 4 2 1 0 1 0 3 5 5 6 7 7 7 7 6 4 5 10 11 11 12 12 12 11 10 10 9 8 7 7 6 5 4
5 5 5 5 4 4 5 6 5 4 4 4 3 2 1 1 1 2 3 5 6 6 7 8 6 6 5 4 7 11 11 11 12 12 11 10 9 8 7 7 6 4 3
5 5 5 5 5 5 5 6 6 7 5 4 3 4 4 5 2 1 2 3 4 4 5 6 7 7 7 5 5 9 11 11 12 12 12 11 10 9 8 7 6 5 4
5 5 5 6 6 5 6 6 6 5 5 4 3 2 2 4 4 2 1 2 3 4 5 5 6 7 7 6 7 9 12 12 11 13 12 11 10 9 8 7 6 6 6
4 4 4 5 5 5 6 7 6 6 6 6 4 3 2 1 2 3 3 2 1 2 3 4 4 5 7 7 6 9 13 13 12 13 13 12 11 10 9 8 8 7 7
4 4 4 4 5 5 6 7 7 8 7 6 5 4 4 4 4 3 3 2 3 2 2 2 3 4 5 7 9 13 15 14 13 12 12 12 12 11 10 9 9 8 8
4 5 4 4 4 4 5 5 6 7 7 7 7 6 5 4 3 4 3 3 2 1 1 1 2 3 4 5 6 13 14 14 13 12 11 11 11 10 10 10 9 9 8
5 6 5 4 3 3 3 4 4 5 5 7 9 8 5 6 5 5 5 5 3 2 2 3 1 2 3 4 6 12 8 13 12 12 11 11 10 9 8 8 8 8 8
5 6 5 5 5 4 2 1 2 4 4 6 7 8 7 6 6 5 4 5 6 5 4 4 3 2 3 3 7 7 6 11 12 11 11 11 10 9 8 7 7 6 6
7 7 7 6 7 6 5 2 1 1 2 3 4 5 6 5 5 5 5 4 4 4 4 4 3 2 3 4 7 7 6 11 12 11 11 10 10 9 8 7 7 7 6
8 8 8 8 8 8 7 4 3 2 0 1 2 4 5 5 4 5 5 5 5 4 4 2 1 2 3 4 5 4 5 5 6 10 10 10 9 8 8 7 7 7 6
7 7 7 8 8 8 7 6 5 4 2 1 2 3 4 4 5 4 4 5 5 5 4 4 3 2 3 4 5 5 4 5 4 8 9 9 8 8 8 8 8 7 7
7 7 7 7 7 7 7 7 5 4 3 1 1 2 3 4 4 3 4 4 4 4 4 4 4 2 2 3 4 4 5 4 5 6 8 9 9 9 9 9 9 8 7
6 6 7 7 7 6 6 6 6 5 4 3 2 2 2 4 4 5 4 5 4 4 4 4 4 3 3 3 4 5 5 4 5 6 8 9 12 12 11 11 10 10 10
6 6 6 6 7 6 6 7 5 5 5 4 4 3 2 3 6 5 4 4 5 4 4 4 4 3 3 4 5 4 6 6 5 5 7 6 7 6 6 9 10 12 12
5 5 6 6 7 7 11 11 7 4 4 4 4 3 3 3 5 6 7 7 7 6 5 4 3 4 4 4 5 7 7 7 4 4 6 6 5 6 4 4 9 12 13
5 5 6 6 6 8 13 12 10 5 4 4 4 3 3 4 5 4 5 6 5 6 6 5 5 5 5 5 7 8 7 5 5 6 6 5 4 5 4 6 11 12 12
3 4 4 5 6 9 14 13 11 6 5 4 4 3 3 3 3 4 5 5 4 3 3 3 4 4 4 6 7 7 8 8 8 5 4 5 3 4 4 4 9 10 10
3 3 3 4 5 8 14 13 10 4 4 5 4 5 4 3 4 6 6 5 5 3 4 5 5 5 7 10 11 9 9 10 7 3 2 4 4 3 3 3 4 7 7
3 3 3 4 5 6 12 14 10 3 4 4 4 5 6 4 5 6 5 5 5 3 4 5 5 6 6 9 11 9 9 9 7 4 3 4 5 4 3 1 1 2 3
Wind_Direction
218 215 219 212 207 201 200 208 216 226 235 241 240 233 219 210 197 186 193 192 183 179 177 175 173 172 169 166 162 157 151 145 144 145 145 144 143 143 142 139 136 133 131
217 211 219 222 216 205 204 208 215 218 229 236 239 233 218 197 192 188 188 189 185 182 180 180 181 179 178 177 174 167 163 159 155 153 154 154 153 153 152 150 149 147 142
220 210 213 221 220 209 203 210 224 218 234 239 240 232 215 194 185 187 185 181 184 186 183 185 185 184 185 185 181 177 171 167 164 162 162 162 162 162 162 163 164 163 161
230 214 213 221 217 208 197 201 208 212 234 242 241 228 205 184 182 183 182 181 182 183 188 189 187 189 189 189 187 184 179 175 173 171 169 168 169 172 173 174 176 176 179
246 227 225 223 208 205 202 209 203 193 213 229 231 223 195 177 176 180 183 185 187 182 180 191 190 190 193 193 192 189 186 184 181 179 175 172 173 176 178 180 180 185 195
249 239 238 232 215 207 205 203 195 192 200 208 220 215 201 183 173 179 186 184 187 186 182 185 187 196 198 194 195 194 191 190 187 184 182 179 177 178 181 183 189 198 204
255 237 238 235 221 214 211 203 191 188 200 188 145 250 337 222 181 182 181 178 185 188 181 186 188 186 195 197 195 193 194 192 191 189 187 185 183 183 185 188 190 192 198
264 252 232 229 222 220 220 207 193 190 196 182 161 145 168 329 283 198 175 177 183 181 183 192 191 190 189 184 196 194 192 191 192 191 189 185 183 183 186 184 183 182 181
265 257 246 234 227 216 221 212 199 192 193 194 185 162 161 199 215 246 188 171 167 168 182 186 192 195 194 187 187 196 190 188 191 190 186 182 180 181 178 176 173 169 161
275 265 254 243 236 223 220 219 208 195 181 186 194 202 174 157 157 182 223 177 163 161 177 184 192 195 195 188 193 191 188 187 189 188 183 179 178 177 176 174 173 167 156
289 280 262 249 242 231 222 215 208 200 191 184 179 170 176 166 153 150 173 180 159 166 168 177 184 192 194 187 188 193 188 186 186 185 182 181 179 179 177 176 174 170 162
305 301 285 263 250 237 228 220 211 205 201 192 186 178 170 171 179 166 159 166 177 185 175 180 176 184 187 184 193 192 189 186 186 184 181 181 182 181 180 178 175 173 170
319 312 308 290 265 245 233 221 211 209 202 198 195 196 192 191 170 162 155 154 156 164 171 202 203 185 180 176 187 188 190 186 187 185 182 181 181 183 183 181 179 175 175
323 327 328 328 321 289 248 221 212 212 206 206 205 199 197 201 192 183 169 157 155 170 187 194 201 197 180 174 178 177 185 188 188 186 183 181 180 180 181 182 183 179 175
349 353 357 1 1 355 337 239 212 213 205 205 203 200 200 202 197 192 176 167 166 179 199 193 188 202 188 169 167 172 175 190 190 188 187 185 182 181 178 174 169 163 161
2 4 11 11 10 7 2 357 298 244 201 201 192 193 195 192 188 187 184 181 176 169 184 186 186 180 180 169 170 168 175 185 191 189 189 186 183 180 175 170 164 159 155
11 16 16 17 18 14 8 9 10 27 104 179 173 183 189 180 179 185 182 180 179 165 167 166 158 150 156 159 153 154 162 176 186 186 184 180 175 170 165 161 153 147 144
13 17 18 20 19 16 9 13 15 17 29 90 154 161 170 169 166 173 177 179 178 168 160 160 154 149 154 162 151 148 149 156 154 170 168 161 158 155 151 145 137 133 133
14 15 17 17 12 9 10 9 11 14 19 27 89 135 149 149 157 164 170 172 171 163 151 149 150 141 127 135 129 121 118 114 127 129 129 128 127 126 126 124 121 120 119
13 10 10 8 2 359 5 7 10 15 25 31 58 100 129 145 155 157 163 165 158 153 147 145 142 137 126 131 133 132 125 114 112 108 102 101 104 102 104 108 111 112 111
11 3 6 4 359 0 6 8 7 16 28 38 46 63 107 136 149 152 153 155 150 145 146 144 142 139 138 147 149 140 134 121 101 108 107 98 96 90 88 99 106 110 108
357 2 5 2 4 5 9 18 21 20 26 43 48 48 74 91 121 133 143 154 155 153 151 146 146 153 152 147 136 141 139 135 124 120 109 95 92 92 82 88 107 110 110
354 359 360 1 359 355 11 19 28 32 30 38 45 53 70 76 78 94 112 116 132 150 154 149 151 162 157 154 146 147 146 133 120 130 113 95 84 87 77 92 104 108 111
345 350 357 358 359 3 15 20 29 34 39 38 44 54 74 73 86 106 104 94 86 87 129 143 154 162 157 152 149 141 131 110 102 102 99 104 90 79 68 68 97 104 106
345 346 353 4 6 358 12 22 31 26 40 36 39 49 61 76 99 110 109 108 96 77 80 103 119 128 140 140 136 130 132 134 129 114 90 107 116 93 66 48 68 87 99
337 347 12 11 10 1 9 21 31 33 40 34 37 38 41 64 87 105 114 117 110 96 92 88 83 91 115 134 139 142 144 144 136 129 137 115 136 132 113 73 51 58 73